"Time","Temp","Dewpoint","Humidity","Pressure","Direction","Speed","Gust","Precip","PrecipRate"
"00:04:56","72.6","70.1","92","30.01","173","2","5","0.00","0.00"
"00:09:57","72.5","70","92","30.01","161","2.7","6","0.00","0.00"
"00:14:59","72.4","69.9","92","30.01","157","2.2","4.6","0.00","0.00"
"00:19:57","72.3","69.8","92","30.01","150","1.9","4","0.00","0.00"
"00:24:59","72.2","69.7","92","30.01","148","1.6","4","0.00","0.00"
"00:29:57","72.1","69.6","92","30.01","154","1.6","4","0.00","0.00"
"00:34:59","72","69.5","92","30.01","182","1.3","4","0.00","0.00"
"00:39:58","72","69.5","92","30.01","181","1.2","4","0.00","0.00"
"00:44:56","71.9","69.5","92.3","30.01","180","0.9","2.3","0.00","0.00"
"00:49:58","71.9","69.8","93","30.01","181","0.4","2.3","0.00","0.00"
"00:54:56","71.8","69.7","93","30.01","181","0.5","2.3","0.00","0.00"
"00:59:58","71.8","69.7","93","30.01","181","0","1.2","0.00","0.00"
"01:04:59","71.8","69.7","93","30.01","181","0.5","3.5","0.00","0.00"
"01:09:57","71.7","69.6","93","30.01","181","0.8","2.3","0.00","0.00"
"01:14:56","71.7","69.6","93","30.01","180","1.1","2.3","0.00","0.00"
"01:19:58","71.7","69.6","93","30.01","180","0.6","2.3","0.00","0.00"
"01:24:56","71.7","69.6","93","30.01","181","1","3.5","0.00","0.00"
"01:29:58","71.7","69.6","93","30.01","180","1.3","3.5","0.00","0.00"
"01:34:56","71.7","69.6","93","30.00","148","2","4","0.00","0.00"
"01:39:59","71.7","69.6","93","30.00","146","1.4","4","0.00","0.00"
"01:44:57","71.7","69.6","93","30.00","144","1.1","4","0.00","0.00"
"01:49:59","71.7","69.6","93","29.99","144","0.8","3.5","0.00","0.00"
"01:54:56","71.7","69.6","93","29.99","144","0.2","2.3","0.00","0.00"
"01:59:58","71.7","69.6","93","29.99","144","0.6","2.3","0.00","0.00"
"02:04:59","71.7","69.6","93","29.99","153","1.2","4","0.00","0.00"
"02:09:57","71.7","69.6","93","29.99","180","1.5","3.5","0.00","0.00"
"02:14:56","71.7","69.6","93","29.99","180","1","3.5","0.00","0.00"
"02:19:58","71.6","69.5","93","29.99","176","1.5","5","0.00","0.00"
"02:24:56","71.7","69.6","93","29.99","162","1.8","4","0.00","0.00"
"02:29:58","71.7","69.6","93","29.99","144","0.3","3.5","0.00","0.00"
"02:34:59","71.7","69.6","93","29.98","144","0.1","2.3","0.00","0.00"
"02:39:59","71.7","69.6","93","29.98","144","0.5","2.3","0.00","0.00"
"02:44:56","71.7","69.6","93","29.98","144","0.8","3.5","0.00","0.00"
"02:49:59","71.7","69.6","93","29.98","144","0.8","4","0.00","0.00"
"02:54:57","71.6","69.5","93","29.98","151","1.6","4","0.00","0.00"
"02:59:58","71.6","69.5","93","29.98","151","0.8","3.5","0.00","0.00"
"03:04:56","71.5","69.4","93","29.98","151","0.8","3.5","0.00","0.00"
"03:09:58","71.5","69.5","93.3","29.98","150","0.9","3.5","0.00","0.00"
"03:14:57","71.5","69.6","93.9","29.98","151","1.6","4","0.00","0.00"
"03:19:59","71.5","69.7","94","29.98","151","0.9","2.3","0.00","0.00"
"03:24:57","71.5","69.7","94","29.98","152","1.4","4","0.00","0.00"
"03:29:58","71.5","69.7","94","29.98","153","0.5","2.3","0.00","0.00"
"03:34:56","71.4","69.6","94","29.98","154","1.5","4","0.00","0.00"
"03:39:59","71.3","69.5","94","29.98","158","0.5","3.5","0.00","0.00"
"03:44:57","71.3","69.5","94","29.98","157","0.9","3","0.00","0.00"
"03:49:59","71.3","69.5","94","29.97","158","1.4","3.5","0.00","0.00"
"03:54:56","71.3","69.5","94","29.97","159","0.4","2.3","0.00","0.00"
"03:59:58","71.3","69.5","94","29.97","159","0.1","1.2","0.00","0.00"
"04:04:59","71.3","69.5","94","29.97","159","1","3.5","0.00","0.00"
"04:09:57","71.3","69.5","94","29.97","159","0.5","4","0.00","0.00"
"04:14:56","71.4","69.6","94","29.97","162","1.3","5","0.00","0.00"
"04:19:58","71.4","69.6","94","29.97","178","2.5","6","0.00","0.00"
"04:24:56","71.5","69.8","94.3","29.97","178","1.8","5","0.00","0.00"
"04:29:58","71.5","69.9","94.6","29.97","173","1.8","3.5","0.00","0.00"
"04:34:57","71.5","70","94.9","29.96","196","1.9","5","0.00","0.00"
"04:39:56","71.6","69.9","94.5","29.96","173","2.5","4","0.00","0.00"
"04:44:58","71.6","69.8","94","29.96","171","1.5","3.5","0.00","0.00"
"04:49:56","71.6","69.8","94","29.96","187","1.4","3.5","0.00","0.00"
"04:54:57","71.6","69.8","94","29.96","187","0.1","2.3","0.00","0.00"
"04:59:59","71.6","69.8","94.2","29.96","187","0.8","3.5","0.00","0.00"
"05:04:56","71.6","70.1","95","29.96","187","1","3.5","0.00","0.00"
"05:09:58","71.6","70.1","95","29.96","186","1.2","3.5","0.00","0.00"
"05:14:57","71.6","70.1","95","29.96","186","0.7","2.3","0.00","0.00"
"05:19:59","71.6","70.1","95","29.96","186","0.6","2.3","0.00","0.00"
"05:24:57","71.7","70.1","94.9","29.96","186","0.7","2.3","0.00","0.00"
"05:29:59","71.6","69.9","94.5","29.96","186","0.6","2.3","0.00","0.00"
"05:34:57","71.5","69.7","94","29.96","186","0.1","2.3","0.00","0.00"
"05:39:56","71.5","69.7","94","29.96","186","0.7","3.5","0.00","0.00"
"05:44:58","71.4","69.9","95","29.96","186","0.9","3.5","0.00","0.00"
"05:49:56","71.4","69.9","95","29.96","186","0.7","3.5","0.00","0.00"
"05:54:58","71.4","69.9","95","29.96","186","1.2","3.5","0.00","0.00"
"05:59:56","71.4","69.9","95","29.97","186","0.4","2.3","0.00","0.00"
"06:04:57","71.5","70","95","29.97","186","0.3","2","0.00","0.00"
"06:09:56","71.5","70","95","29.97","186","0.6","3.5","0.00","0.00"
"06:14:59","71.5","70","95","29.97","186","0.9","3.5","0.00","0.00"
"06:19:57","71.5","70","95","29.97","186","0.3","2.3","0.00","0.00"
"06:24:59","71.4","69.9","95","29.97","186","0","0","0.00","0.00"
"06:29:56","71.5","70","95","29.97","186","0","0","0.00","0.00"
"06:34:57","71.5","70","95","29.97","186","0.4","2.3","0.00","0.00"
"06:39:56","71.6","70.1","95","29.97","186","0.3","3","0.00","0.00"
"06:44:57","71.7","70.2","95","29.97","186","0.8","3.5","0.00","0.00"
"06:49:59","71.7","70.2","95","29.97","186","0.6","2.3","0.00","0.00"
"06:54:56","71.8","70.3","95","29.97","186","0.3","2.3","0.00","0.00"
"06:59:58","71.9","70.4","95","29.97","185","0.7","3.5","0.00","0.00"
"07:04:58","72.1","70.6","95","29.97","184","0.9","3.5","0.00","0.00"
"07:09:57","72.2","70.6","94.8","29.97","184","2","4","0.00","0.00"
"07:14:59","72.2","70.4","94.2","29.97","184","0.3","3.5","0.00","0.00"
"07:19:57","72.3","70.7","94.6","29.97","184","1","3.5","0.00","0.00"
"07:24:59","72.4","70.8","94.8","29.97","184","0.4","2.3","0.00","0.00"
"07:29:56","72.5","70.8","94.6","29.97","182","1.2","3.5","0.00","0.00"
"07:34:58","72.6","70.8","94","29.97","182","1.2","3.5","0.00","0.00"
"07:39:57","72.7","70.9","94","29.97","182","0.7","3.5","0.00","0.00"
"07:44:59","72.9","71.1","94","29.98","164","1.9","4","0.00","0.00"
"07:49:56","73","71.1","93.6","29.98","146","0.9","3.5","0.00","0.00"
"07:54:57","73.2","71.1","93.1","29.98","146","1.8","3.5","0.00","0.00"
"07:59:59","73.3","71.2","92.8","29.98","146","1.3","3.5","0.00","0.00"
"08:04:56","73.5","71.4","93","29.98","149","1.1","4","0.00","0.00"
"08:09:58","73.9","71.5","92.6","29.98","177","1.1","3.5","0.00","0.00"
"08:14:56","74.1","71.6","92","29.98","167","0.9","3.5","0.00","0.00"
"08:19:58","74.4","71.9","92","29.97","105","1.4","4","0.00","0.00"
"08:24:59","74.4","71.7","91.2","29.97","113","0.4","2.3","0.00","0.00"
"08:29:57","74.6","71.8","91","29.98","113","0.6","3.5","0.00","0.00"
"08:34:58","74.7","71.8","90.7","29.98","113","1.2","4","0.00","0.00"
"08:39:57","74.8","71.8","90.3","29.98","114","0","0","0.00","0.00"
"08:44:58","75","72","90.4","29.98","114","0.6","3","0.00","0.00"
"08:49:56","75","71.9","90","29.98","114","1.3","3.5","0.00","0.00"
"08:54:57","75","71.9","90","29.98","113","0.9","3.5","0.00","0.00"
"08:59:59","75","71.9","90","29.99","286","0.8","3.5","0.00","0.00"
"09:04:56","75.1","72","90","29.99","278","1.1","3.5","0.00","0.00"
"09:09:57","75.1","72","90","29.99","277","0.5","1.2","0.00","0.00"
"09:14:57","75","71.9","90","30.00","277","0.1","2","0.00","0.00"
"09:19:58","75.1","72","90","30.00","277","1","2.3","0.00","0.00"
"09:24:56","75.1","72","90","30.00","232","0.3","2","0.00","0.00"
"09:29:57","75.1","72","90","30.00","232","0.5","2.3","0.00","0.00"
"09:34:59","75","71.9","90","30.00","236","1.4","4","0.00","0.00"
